FW4751 Weather Reports


time (UTC)temp
F
wind
direction
speed
knots
gust
knots
rain 1hr
in
rain 24hr
in
rain mn
in
humidity
%
barometer
mb
20260505035004 57 315 0.9 3.5 0.00 0.00 0.00 75 1015.5
20260505034523 58 315 0.9 2.6 0.00 0.00 0.00 74 1015.5
20260505034004 58 338 0.9 3.5 0.00 0.00 0.00 74 1015.5
20260505033504 58 315 0.9 2.6 0.00 0.00 0.00 73 1015.5
20260505033003 58 315 0.9 3.5 0.00 0.00 0.00 73 1015.4
20260505032503 58 315 0.9 3.5 0.00 0.00 0.00 72 1015.1
20260505032044 58 338 1.7 4.3 0.00 0.00 0.00 72 1015.0
20260505031504 59 315 1.7 4.3 0.00 0.00 0.00 71 1015.2
20260505031003 59 338 0.9 4.3 0.00 0.00 0.00 70 1015.1
20260505030503 59 315 0.9 2.6 0.00 0.00 0.00 70 1015.1
20260505030004 59 315 0.9 2.6 0.00 0.00 0.00 70 1015.1
20260505025503 59 338 0.9 4.3 0.00 0.00 0.00 69 1015.1
20260505025003 59 315 0.9 3.5 0.00 0.00 0.00 69 1015.0
20260505024523 60 315 0.9 2.6 0.00 0.00 0.00 69 1015.0
20260505024003 60 315 0.9 2.6 0.00 0.00 0.00 68 1015.1
20260505023523 60 315 1.7 3.5 0.00 0.00 0.00 68 1015.0
20260505023003 60 315 0.9 3.5 0.00 0.00 0.00 68 1015.0
20260505022503 60 315 1.7 3.5 0.00 0.00 0.00 67 1014.9
20260505022003 60 338 1.7 4.3 0.00 0.00 0.00 67 1014.8
20260505021503 60 338 0.9 3.5 0.00 0.00 0.00 67 1014.9
20260505021008 60 338 0.9 4.3 0.00 0.00 0.00 67 1015.0
20260505020503 60 338 0.9 2.6 0.00 0.00 0.00 66 1015.0
20260505020003 60 338 0.9 3.5 0.00 0.00 0.00 66 1014.9
20260505015523 60 338 1.7 5.2 0.00 0.00 0.00 65 1014.9
20260505015003 61 315 1.7 5.2 0.00 0.00 0.00 65 1014.9
20260505014523 61 315 1.7 4.3 0.00 0.00 0.00 64 1015.0
20260505014023 61 315 1.7 4.3 0.00 0.00 0.00 63 1015.1
20260505013523 61 338 1.7 4.3 0.00 0.00 0.00 62 1015.0
20260505013003 61 315 1.7 6.1 0.00 0.00 0.00 62 1015.1
20260505012503 61 315 1.7 4.3 0.00 0.00 0.00 61 1015.1
20260505012003 62 338 0.9 3.5 0.00 0.00 0.00 61 1015.1
20260505011503 61 338 1.7 4.3 0.00 0.00 0.00 60 1015.1
20260505011003 62 338 1.7 3.5 0.00 0.00 0.00 59 1015.1
20260505010523 62 315 1.7 4.3 0.00 0.00 0.00 59 1015.2
20260505010004 62 315 2.6 6.1 0.00 0.00 0.00 58 1015.3
20260505005624 63 338 1.7 4.3 0.00 0.00 0.00 58 1015.4
20260505005003 62 338 1.7 4.3 0.00 0.00 0.00 58 1015.3
20260505004503 62 338 2.6 6.1 0.00 0.00 0.00 58 1015.2
20260505004003 62 338 1.7 5.2 0.00 0.00 0.00 60 1015.3
20260505003524 62 338 2.6 5.2 0.00 0.00 0.00 60 1015.4
20260505003003 62 338 1.7 4.3 0.00 0.00 0.00 60 1015.4
20260505002503 62 338 1.7 5.2 0.00 0.00 0.00 60 1015.4
20260505002023 62 338 1.7 5.2 0.00 0.00 0.00 61 1015.5
20260505001503 62 338 1.7 4.3 0.00 0.00 0.00 62 1015.4
20260505001023 62 315 1.7 5.2 0.00 0.00 0.00 63 1015.4
20260505000503 62 338 1.7 6.1 0.00 0.00 0.00 63 1015.4
20260505000003 62 315 1.7 6.1 0.00 0.00 0.00 63 1015.3
20260504235503 62 338 1.7 4.3 0.00 0.00 0.00 63 1015.3
20260504235003 63 338 1.7 4.3 0.00 0.00 0.00 62 1015.2
20260504234503 63 338 0.9 1.7 0.00 0.00 0.00 62 1015.2
20260504234003 63 315 0.9 2.6 0.00 0.00 0.00 62 1015.2
20260504233503 63 225 0.9 2.6 0.00 0.00 0.00 63 1015.2
20260504233003 63 225 1.7 3.5 0.00 0.00 0.00 64 1015.3
20260504232523 63 225 1.7 4.3 0.00 0.00 0.00 65 1015.3
20260504232003 63 225 1.7 5.2 0.00 0.00 0.00 63 1015.4
20260504231523 63 225 1.7 5.2 0.00 0.00 0.00 63 1015.2
20260504231003 63 225 1.7 6.1 0.00 0.00 0.00 63 1015.1
20260504230503 63 225 2.6 6.1 0.00 0.00 0.00 63 1015.2
20260504230003 64 225 2.6 7.0 0.00 0.00 0.00 61 1015.2
20260504225502 65 225 1.7 5.2 0.00 0.00 0.00 61 1015.2
20260504225003 65 225 3.5 7.8 0.00 0.00 0.00 61 1015.1
20260504224523 65 225 2.6 6.1 0.00 0.00 0.00 61 1015.2
20260504224003 65 225 2.6 5.2 0.00 0.00 0.00 61 1015.1
20260504223503 65 225 2.6 7.0 0.00 0.00 0.00 61 1015.3
20260504223005 65 225 1.7 5.2 0.00 0.00 0.00 62 1015.2
20260504222545 64 225 1.7 8.7 0.00 0.00 0.00 60 1015.3
20260504222004 66 225 1.7 6.1 0.00 0.00 0.00 58 1015.3
20260504221505 66 225 2.6 7.0 0.00 0.00 0.00 57 1015.3
20260504221004 67 225 2.6 9.6 0.00 0.00 0.00 57 1015.4
20260504220505 67 225 3.5 9.6 0.00 0.00 0.00 55 1015.4
20260504220005 68 225 3.5 7.8 0.00 0.00 0.00 54 1015.4
20260504215506 69 225 3.5 7.0 0.00 0.00 0.00 53 1015.5
20260504215004 70 225 2.6 6.1 0.00 0.00 0.00 52 1015.4
20260504214510 71 225 2.6 7.0 0.00 0.00 0.00 50 1015.3
20260504214005 71 203 2.6 7.0 0.00 0.00 0.00 50 1015.5
20260504213505 71 225 2.6 7.0 0.00 0.00 0.00 50 1015.4
20260504213005 71 225 2.6 7.8 0.00 0.00 0.00 50 1015.5
20260504212504 70 225 2.6 7.8 0.00 0.00 0.00 49 1015.4
20260504212005 71 225 2.6 6.1 0.00 0.00 0.00 49 1015.5
20260504211505 71 225 2.6 7.8 0.00 0.00 0.00 50 1015.4
20260504211005 71 315 1.7 6.1 0.00 0.00 0.00 52 1015.5
20260504210504 70 293 2.6 7.0 0.00 0.00 0.00 54 1015.6
20260504210005 69 225 2.6 6.1 0.00 0.00 0.00 54 1015.4
20260504205504 69 225 2.6 7.0 0.00 0.00 0.00 55 1015.6
20260504205004 68 225 2.6 6.1 0.00 0.00 0.00 55 1015.6
20260504204504 67 293 0.9 3.5 0.00 0.00 0.00 59 1015.6
20260504204005 66 315 1.7 5.2 0.00 0.00 0.00 59 1015.6
20260504203505 66 338 0.9 3.5 0.00 0.00 0.00 60 1015.6
20260504203004 65 315 0.9 3.5 0.00 0.00 0.00 61 1015.6
20260504202504 64 0 0.9 2.6 0.00 0.00 0.00 63 1015.6
20260504202004 63 293 0.9 2.6 0.00 0.00 0.00 64 1015.7
20260504201504 62 338 0.9 2.6 0.00 0.00 0.00 65 1015.7
20260504201024 62 338 0.9 2.6 0.00 0.00 0.00 65 1015.8
20260504200504 62 293 0.9 1.7 0.00 0.00 0.00 67 1015.8
20260504200004 62 338 0.9 3.5 0.00 0.00 0.00 67 1015.8
20260504195505 62 45 0.9 2.6 0.00 0.00 0.00 65 1015.9
20260504195004 62 338 1.7 3.5 0.00 0.00 0.00 66 1015.8
20260504194505 61 45 1.7 5.2 0.00 0.00 0.00 67 1016.0
20260504194025 61 45 1.7 3.5 0.00 0.00 0.00 69 1015.9
20260504193504 61 338 1.7 4.3 0.00 0.00 0.00 68 1015.9
20260504193005 61 45 1.7 4.3 0.00 0.00 0.00 68 1015.9
20260504192525 61 45 1.7 4.3 0.00 0.00 0.00 69 1015.9
20260504192005 61 45 1.7 3.5 0.00 0.00 0.00 70 1015.9
20260504191524 61 45 2.6 4.3 0.00 0.00 0.00 70 1016.0
20260504191004 61 338 1.7 4.3 0.00 0.00 0.00 71 1015.9
20260504190504 61 45 1.7 4.3 0.00 0.00 0.00 70 1015.9
20260504190005 61 45 1.7 3.5 0.00 0.00 0.00 69 1015.9
20260504185504 61 45 1.7 3.5 0.00 0.00 0.00 69 1016.0
20260504185005 61 338 0.9 3.5 0.00 0.00 0.00 68 1015.9
20260504184504 61 45 0.9 3.5 0.00 0.00 0.00 66 1015.9
20260504184004 62 45 1.7 3.5 0.00 0.00 0.00 66 1015.8
20260504183504 63 45 1.7 4.3 0.00 0.00 0.00 65 1015.9
20260504183004 64 68 1.7 3.5 0.00 0.00 0.00 65 1016.0
20260504182504 63 45 0.9 2.6 0.00 0.00 0.00 66 1015.8
20260504182004 62 45 0.9 2.6 0.00 0.00 0.00 67 1015.8
20260504181504 62 45 0.9 3.5 0.00 0.00 0.00 68 1015.8
20260504181004 61 45 0.9 3.5 0.00 0.00 0.00 67 1015.7
20260504180504 61 45 1.7 3.5 0.00 0.00 0.00 66 1015.9
20260504180004 63 45 1.7 3.5 0.00 0.00 0.00 62 1015.9
20260504175504 65 45 1.7 3.5 0.00 0.00 0.00 59 1015.7
20260504175024 66 45 0.9 3.5 0.00 0.00 0.00 57 1015.6
20260504174504 67 135 0.9 1.7 0.00 0.00 0.00 57 1015.6
20260504174024 67 135 0.9 2.6 0.00 0.00 0.00 56 1015.7
20260504173504 67 135 0.9 1.7 0.00 0.00 0.00 57 1015.7
20260504173004 67 135 0.9 1.7 0.00 0.00 0.00 58 1015.6
20260504172504 67 113 0.9 3.5 0.00 0.00 0.00 58 1015.5
20260504172004 67 135 0.9 1.7 0.00 0.00 0.00 59 1015.5
20260504171504 65 113 0.9 1.7 0.00 0.00 0.00 60 1015.5
20260504171004 65 113 1.7 3.5 0.00 0.00 0.00 62 1015.3
20260504170504 64 113 1.7 4.3 0.00 0.00 0.00 63 1015.3
20260504151004 57 113 0.9 1.7 0.00 0.00 0.00 77 1015.5
20260504150504 57 45 0.9 1.7 0.00 0.00 0.00 81 1015.4
20260504141003 48 225 0.9 1.7 0.00 0.00 0.00 90 1015.3
20260504140503 48 0.0 0.9 0.00 0.00 0.00 90 1015.3
20260504130503 48 0.0 0.9 0.00 0.00 0.00 89 1014.9
20260504110503 48 0.0 0.9 0.00 0.00 0.00 87 1015.1
20260504100503 49 0.0 0.9 0.00 0.00 0.00 84 1014.9
20260504082003 53 0.0 0.9 0.00 0.00 0.00 80 1015.3
20260504081525 53 0.0 1.7 0.00 0.00 0.00 80 1015.3
20260504081025 53 0 0.9 1.7 0.00 0.00 0.00 79 1015.4
20260504080545 53 0.0 1.7 0.00 0.00 0.00 78 1015.4
20260504050505 55 293 0.9 3.5 0.00 0.00 0.00 77 1015.1
20260504050004 55 315 0.9 1.7 0.00 0.00 0.00 77 1015.1
20260504045524 55 315 0.9 1.7 0.00 0.00 0.00 76 1014.8
20260504045004 55 315 0.9 1.7 0.00 0.00 0.00 76 1014.7
20260504044505 55 315 0.9 1.7 0.00 0.00 0.00 76 1014.7
20260504044004 55 225 0.9 3.5 0.00 0.00 0.00 76 1014.7
20260504043504 55 225 0.9 3.5 0.00 0.00 0.00 75 1014.7
20260504043004 55 270 0.9 1.7 0.00 0.00 0.00 75 1014.6
20260504042504 55 270 0.9 1.7 0.00 0.00 0.00 75 1014.5
20260504042004 55 225 1.7 4.3 0.00 0.00 0.00 74 1014.5
20260504041504 55 225 1.7 4.3 0.00 0.00 0.00 74 1014.5
20260504041005 55 225 1.7 5.2 0.00 0.00 0.00 74 1014.5
20260504040524 55 203 0.9 4.3 0.00 0.00 0.00 74 1014.3
20260504040024 56 225 1.7 3.5 0.00 0.00 0.00 74 1014.3
20260504035504 56 225 1.7 5.2 0.00 0.00 0.00 74 1014.2